Cape Girardeau, MO

9:54 AM CDT on March 24, 2017 (GMT -0500)
Cape Girardeau Regional

Weather History for KCGI - September, 2012

Change the Weather History Date:

Monday, September 17, 2012

  Actual Average Record
Temperature  
Mean Temperature 70 °F 68 °F  
Max Temperature 75 °F 81 °F 92 °F (1983)
Min Temperature 65 °F 56 °F 39 °F (2000)
Degree Days  
Heating Degree Days 0 1  
Month to date heating degree days 1 7  
Since 1 July heating degree days 1 8  
Cooling Degree Days 5 5  
Month to date cooling degree days 127 119  
Year to date cooling degree days 1743 1379  
Growing Degree Days 20 (Base 50)    
Moisture  
Dew Point 67 °F    
Average Humidity 90    
Maximum Humidity 100    
Minimum Humidity 79    
Precipitation  
Precipitation 0.63 in 0.11 in 2.34 in (1964)
Month to date precipitation 4.97 1.90  
Year to date precipitation 20.15 32.95  
Sea Level Pressure  
Sea Level Pressure 29.87 in    
Wind  
Wind Speed 2 mph (SSW)    
Max Wind Speed 8 mph    
Max Gust Speed 10 mph    
Visibility 4 miles    
Events Rain    
T = Trace of Precipitation, MM = Missing Value Source: NWS Daily Summary

Daily Weather History Graph

Daily Weather History Graph

Search for Another Location

Airport or City:

Trip Planner

Search our weather history database for the weather conditions in past years. The results will help you decide how hot, cold, wet, or windy it might be!

Date:

Astronomy

Sep. 17, 2012 Rise Set
Actual Time 6:42 AM CDT 7:02 PM CDT
Civil Twilight 6:16 AM CDT 7:28 PM CDT
Nautical Twilight 5:45 AM CDT 7:58 PM CDT
Astronomical Twilight 5:14 AM CDT 8:29 PM CDT
Moon 8:27 AM CDT (9/17) 7:48 PM CDT (9/17)
Length of Visible Light 13h 11m
Length of Day
12h 19m
Waxing Crescent, 3% of the Moon is Illuminated
Sep 17
Waxing Crescent
Sep 22
First Quarter
Sep 29
Full
Oct 8
Last Quarter
Oct 15
New

Hourly Weather History & Observations

Time (CDT) Temp. Dew Point Humidity Pressure Visibility Wind Dir Wind Speed Gust Speed Precip Events Conditions
12:53 AM 69.1 °F 66.9 °F 93% 29.97 in 4.0 mi East 3.5 mph - 0.01 in   Overcast
1:21 AM 69.8 °F 66.2 °F 88% 29.97 in 5.0 mi Calm Calm - N/A   Overcast
1:53 AM 69.1 °F 66.9 °F 93% 29.96 in 4.0 mi Calm Calm - N/A   Overcast
2:48 AM 68.0 °F 66.2 °F 94% 29.95 in 3.0 mi Calm Calm - N/A   Overcast
2:53 AM 68.0 °F 66.9 °F 96% 29.94 in 4.0 mi Calm Calm - N/A   Overcast
3:39 AM 68.0 °F 66.2 °F 94% 29.94 in 3.0 mi Calm Calm - 0.00 in Rain Light Rain
3:53 AM 68.0 °F 66.9 °F 96% 29.93 in 3.0 mi Calm Calm - 0.01 in   Overcast
4:01 AM 68.0 °F 66.2 °F 94% 29.94 in 2.5 mi Calm Calm - N/A   Overcast
4:12 AM 68.0 °F 66.2 °F 94% 29.93 in 3.0 mi Calm Calm - N/A   Overcast
4:26 AM 68.0 °F 66.2 °F 94% 29.93 in 3.0 mi Calm Calm - N/A   Mostly Cloudy
4:38 AM 68.0 °F 66.2 °F 94% 29.92 in 3.0 mi Calm Calm - N/A   Mostly Cloudy
4:45 AM 68.0 °F 66.2 °F 94% 29.92 in 2.0 mi Calm Calm - N/A   Scattered Clouds
4:47 AM 68.0 °F 66.2 °F 94% 29.92 in 1.8 mi Calm Calm - N/A   Mostly Cloudy
4:53 AM 66.9 °F 66.0 °F 97% 29.92 in 1.5 mi Calm Calm - N/A   Mostly Cloudy
5:44 AM 66.2 °F 66.2 °F 100% 29.91 in 0.8 mi Calm Calm - N/A   Mostly Cloudy
5:53 AM 66.9 °F 66.0 °F 97% 29.91 in 0.8 mi Calm Calm - N/A   Overcast
6:05 AM 66.2 °F 66.2 °F 100% 29.91 in 1.2 mi Calm Calm - N/A   Overcast
6:24 AM 68.0 °F 66.2 °F 94% 29.92 in 2.0 mi Calm Calm - N/A   Overcast
6:53 AM 68.0 °F 66.9 °F 96% 29.92 in 2.5 mi Calm Calm - N/A   Overcast
7:53 AM 69.1 °F 66.9 °F 93% 29.92 in 2.0 mi Calm Calm - N/A   Overcast
8:07 AM 69.8 °F 66.2 °F 88% 29.93 in 1.8 mi Calm Calm - N/A   Overcast
8:32 AM 69.8 °F 68.0 °F 94% 29.93 in 1.8 mi Calm Calm - N/A   Overcast
8:53 AM 69.1 °F 68.0 °F 96% 29.92 in 1.8 mi Calm Calm - N/A   Overcast
9:18 AM 69.8 °F 68.0 °F 94% 29.92 in 2.0 mi SW 5.8 mph - N/A   Overcast
9:26 AM 69.8 °F 68.0 °F 94% 29.92 in 2.0 mi SW 3.5 mph - N/A   Overcast
9:53 AM 70.0 °F 68.0 °F 93% 29.91 in 2.5 mi SW 5.8 mph - N/A   Overcast
10:05 AM 71.6 °F 68.0 °F 88% 29.92 in 3.0 mi SW 4.6 mph - N/A   Overcast
10:29 AM 71.6 °F 68.0 °F 88% 29.92 in 4.0 mi SW 3.5 mph - N/A   Overcast
10:50 AM 71.6 °F 68.0 °F 88% 29.92 in 4.0 mi Calm Calm - N/A   Overcast
10:53 AM 71.1 °F 68.0 °F 90% 29.91 in 4.0 mi SSW 3.5 mph - N/A   Overcast
11:18 AM 71.6 °F 68.0 °F 88% 29.91 in 6.0 mi SW 5.8 mph - N/A   Overcast
11:53 AM 73.0 °F 68.0 °F 84% 29.90 in 7.0 mi WSW 4.6 mph - N/A   Overcast
12:32 PM 73.4 °F 68.0 °F 83% 29.90 in 8.0 mi WSW 4.6 mph - N/A   Mostly Cloudy
12:50 PM 73.4 °F 68.0 °F 83% 29.89 in 8.0 mi SW 5.8 mph - N/A   Overcast
12:53 PM 73.0 °F 68.0 °F 84% 29.88 in 8.0 mi West 5.8 mph - N/A   Overcast
1:53 PM 73.0 °F 68.0 °F 84% 29.85 in 9.0 mi South 3.5 mph - N/A   Partly Cloudy
2:53 PM 73.0 °F 68.0 °F 84% 29.82 in 10.0 mi SSW 4.6 mph - N/A   Mostly Cloudy
3:53 PM 73.9 °F 68.0 °F 82% 29.80 in 10.0 mi South 4.6 mph - N/A   Scattered Clouds
4:53 PM 75.0 °F 68.0 °F 79% 29.78 in 10.0 mi South 3.5 mph - N/A   Clear
5:53 PM 73.9 °F 69.1 °F 85% 29.78 in 10.0 mi South 3.5 mph - N/A   Clear
6:53 PM 72.0 °F 68.0 °F 87% 29.78 in 10.0 mi NNE 5.8 mph - N/A   Overcast
7:01 PM 71.6 °F 69.8 °F 94% 29.79 in 2.5 mi Variable 3.5 mph - 0.10 in Rain Light Rain
7:05 PM 71.6 °F 68.0 °F 88% 29.78 in 1.5 mi SSE 5.8 mph - 0.17 in Rain Heavy Rain
7:14 PM 71.6 °F 68.0 °F 88% 29.79 in 3.0 mi Calm Calm - 0.21 in Rain Light Rain
7:25 PM 71.6 °F 68.0 °F 88% 29.79 in 5.0 mi WSW 3.5 mph - 0.22 in Rain Light Rain
7:42 PM 69.8 °F 68.0 °F 94% 29.79 in 2.0 mi SSW 3.5 mph - 0.32 in Rain Heavy Rain
7:53 PM 70.0 °F 68.0 °F 93% 29.79 in 5.0 mi Calm Calm - 0.32 in Rain Light Rain
8:41 PM 69.8 °F 69.8 °F 100% 29.80 in 2.5 mi North 5.8 mph - 0.07 in Rain Rain
8:46 PM 69.8 °F 69.8 °F 100% 29.80 in 1.2 mi Calm Calm - 0.13 in Rain Heavy Rain
8:53 PM 70.0 °F 68.0 °F 93% 29.79 in 1.0 mi Calm Calm - 0.28 in Rain Heavy Rain
9:02 PM 69.8 °F 68.0 °F 94% 29.80 in 2.0 mi Calm Calm - 0.02 in Rain Light Rain
9:10 PM 69.8 °F 68.0 °F 94% 29.80 in 7.0 mi Calm Calm - 0.02 in   Overcast
9:42 PM 69.8 °F 68.0 °F 94% 29.79 in 8.0 mi Calm Calm - 0.02 in   Overcast
9:53 PM 69.1 °F 66.9 °F 93% 29.78 in 9.0 mi SE 3.5 mph - 0.02 in   Overcast
10:53 PM 66.9 °F 64.9 °F 93% 29.78 in 10.0 mi South 3.5 mph - N/A   Clear
11:53 PM 66.9 °F 64.9 °F 93% 29.77 in 2.0 mi Calm Calm - N/A   Partly Cloudy